OneWeb SL0445

operational
NORAD ID: 51639 Int'l Des: 2022-012 Owner: ONEWEBN Country: UK Constellation: oneweb
LEOCIRCULARPOLARONEWEB_TYPE

About OneWeb SL0445

Description loading...

Live Position

Loading 3D Globe...

Upcoming Passes

Altitude History

Altitude vs Time

uPlot chart will show altitude changes over time

Two-Line Element Set

1 51639U 22012T 25260.90310944 .00000677 00000-0 19019-2 0 9998
2 51639 87.8747 90.5269 0001808 91.7533 268.3801 13.10373020173686
Epoch: Sep 17, 2025 • Age: 8 hours

Current Status

Altitude 1232.3 km
Velocity 7.25 km/s
Sub-Earth Point 68.08°N, 175.81°W
Launch Date Feb 10, 2022
Age 3.6 years
Type internet

Technical Details

Classification Payload
Mass 148.00 kg
Dry Mass 140.00 kg
Total Mass 148.00 kg
Length 1.30 m
Diameter 1.00 m
Span 5.00 m
Shape Trapezoid+2 pan
Manufacturer ONEWUS
Bus Type ARROW
Phase Status In Orbit
Owner/State ONEWEBN/UK

Large Constellations

Loading constellations...